Theta_e
310 310 311 311 311 310 310 309 308 307 307 307 306 307 308 310 304 301 309 314 311 312 313 316 320 321 322 322 323 324 325 325 329 334 336 347 349 351 348 350 352 353 353 358 359 360 361 361 361 362 362 362 363 364 364 364 358 360 364 365 364 364 367 369 371 373 373 373 372 371 370 369 367 366 364 363 363 363 361 359 356 355 353 350 349 349 348
309 310 310 311 310 310 309 309 310 310 309 308 307 307 308 308 310 310 311 314 311 314 314 317 319 323 323 323 325 325 325 324 330 328 328 337 339 346 350 351 351 356 356 360 361 362 363 361 362 362 362 363 362 362 362 361 362 362 366 367 367 366 366 369 372 373 373 371 369 369 367 366 366 364 364 362 361 361 360 358 358 356 354 351 349 348 346
308 310 311 311 310 309 307 309 310 310 310 310 309 308 308 310 308 308 309 311 310 315 321 320 321 323 323 324 323 323 326 325 324 324 324 328 328 331 347 355 353 357 359 361 362 362 362 362 362 363 365 365 364 362 363 363 364 363 365 369 368 368 367 370 373 374 372 370 369 368 367 365 365 364 361 361 361 360 358 359 358 358 355 351 348 346 346
306 310 311 311 310 309 307 307 309 309 309 308 309 308 310 308 308 309 308 307 308 313 319 320 322 321 322 320 323 325 325 324 325 326 326 326 329 329 331 340 354 357 359 362 362 362 362 361 364 365 366 365 365 363 365 365 362 363 366 367 368 369 369 371 373 372 371 368 368 367 366 365 364 365 363 360 361 362 358 357 357 356 352 349 348 347 346
305 309 310 309 310 309 304 305 307 309 311 311 311 312 312 311 310 307 305 306 313 316 318 317 319 319 320 321 321 323 325 333 327 326 326 326 327 330 345 349 354 356 357 360 364 363 364 362 364 366 367 365 366 367 368 369 368 367 368 369 370 370 371 372 372 371 370 367 365 366 365 364 365 364 361 362 362 360 358 358 357 354 351 348 349 348 345
305 308 310 311 306 298 299 311 314 313 310 311 309 309 311 313 314 311 313 313 316 316 315 315 316 317 319 322 327 327 327 327 331 325 327 326 327 326 329 340 343 358 359 359 363 366 366 365 364 368 370 367 367 368 369 371 368 369 369 370 372 371 373 373 373 371 369 365 365 364 365 364 363 361 359 358 359 357 356 357 357 354 351 351 346 344 341
304 309 309 304 299 299 312 315 316 316 314 313 311 312 313 314 315 315 314 314 315 317 317 317 318 321 321 322 323 323 323 326 325 328 325 329 329 331 336 341 336 353 361 360 364 366 364 363 366 366 367 367 368 369 370 369 369 369 369 370 371 372 371 372 372 369 365 363 364 363 362 363 362 360 358 359 357 356 354 354 355 354 350 348 346 344 342
310 308 306 297 298 312 314 314 314 316 315 314 312 310 313 314 315 315 314 316 317 318 317 318 321 322 320 321 324 326 323 324 324 322 323 327 327 326 331 345 354 360 358 360 361 363 364 362 364 365 366 368 366 368 370 369 369 370 370 370 371 372 371 371 370 367 364 363 360 363 361 360 359 357 357 358 356 356 355 354 354 351 348 345 342 340 338
303 304 304 303 311 310 311 311 314 313 312 313 312 308 313 317 316 316 315 316 317 318 318 318 319 322 321 321 320 322 322 325 325 324 325 326 327 327 342 339 348 362 362 362 363 367 364 363 363 364 366 366 367 368 369 368 369 370 369 369 370 371 371 371 369 366 364 362 360 360 360 357 357 355 355 355 355 356 352 351 350 345 343 339 337 336 335
308 304 302 303 303 299 306 319 319 322 320 319 320 317 313 318 317 318 317 316 317 318 318 319 320 322 318 315 317 323 324 325 325 324 324 326 327 328 335 352 356 364 363 362 364 363 362 363 366 368 366 367 369 368 368 368 368 368 368 368 369 370 369 370 368 367 366 364 360 358 359 357 355 352 353 353 352 353 349 348 347 345 341 337 336 334 331
307 305 301 302 299 304 319 316 318 320 321 319 320 313 307 317 319 319 319 318 318 318 318 319 320 316 312 312 317 324 326 327 327 328 330 332 330 334 343 351 356 358 361 362 363 364 363 363 366 369 368 368 367 366 367 368 366 364 366 366 367 367 368 369 369 367 366 363 360 357 357 356 355 353 352 352 351 350 348 347 346 345 342 339 337 336 333
306 305 302 301 308 307 316 320 319 320 320 320 315 301 303 330 328 330 329 328 326 328 333 320 318 316 311 312 318 323 326 328 328 328 330 332 331 334 347 351 357 361 363 363 363 361 360 366 368 367 365 366 366 365 366 365 362 362 364 365 368 368 369 368 366 365 363 361 360 357 355 355 355 353 352 350 347 346 345 345 343 341 339 338 335 334 334
304 303 303 305 308 317 319 319 320 321 321 316 306 299 313 327 330 329 332 330 330 330 330 330 316 319 320 321 325 325 327 326 326 329 338 339 336 339 345 348 357 359 361 362 360 362 365 365 362 363 365 365 363 364 363 360 360 361 365 368 368 367 367 364 362 361 360 359 357 356 354 354 353 351 350 347 345 343 341 342 342 341 338 337 336 336 336
303 304 302 302 308 318 321 322 320 322 315 306 307 322 330 331 327 332 330 331 333 333 330 331 330 322 322 323 323 330 335 337 339 339 340 341 345 350 351 357 356 358 357 360 360 359 363 362 362 364 365 363 362 361 359 359 362 365 368 368 366 366 364 362 359 358 358 358 357 354 355 355 352 350 350 348 345 341 341 341 341 339 339 338 338 337 337
306 305 302 300 295 318 322 320 318 322 311 314 324 325 326 327 329 329 331 330 333 335 332 330 332 333 324 322 324 333 337 344 345 346 346 347 346 351 356 356 357 355 357 358 362 364 362 362 363 363 364 362 359 360 361 364 365 366 365 364 363 362 361 359 358 357 357 356 354 353 353 354 352 349 347 345 344 342 341 341 340 339 338 339 337 336 339
301 301 299 299 310 320 323 321 313 323 323 323 326 324 324 329 330 330 330 332 334 337 336 331 330 328 330 334 338 343 347 346 346 349 352 355 357 356 354 354 356 359 361 359 356 358 357 360 363 363 362 360 362 362 361 363 363 363 363 361 360 357 357 356 355 355 354 352 352 354 353 352 349 347 344 344 342 341 340 339 339 339 339 339 339 338 339
307 305 308 321 322 322 324 324 322 324 326 328 328 329 328 329 330 334 334 333 334 336 337 335 333 332 336 342 344 344 346 348 349 350 352 352 352 351 352 355 357 355 351 351 354 357 359 362 362 363 365 363 361 359 360 361 361 360 359 356 354 353 353 354 354 353 352 351 351 351 351 350 346 344 342 343 341 342 341 341 339 338 338 340 339 338 341
321 322 322 323 322 321 322 322 325 324 325 328 329 328 329 330 332 334 333 333 334 336 338 332 338 338 340 341 338 342 347 347 350 351 351 351 353 354 353 353 353 355 355 356 356 357 360 362 362 362 362 361 357 358 360 359 359 357 356 354 352 351 351 351 350 350 348 348 349 349 348 347 346 345 343 341 341 342 341 341 341 339 339 338 338 339 338
311 304 319 319 319 321 321 322 324 325 324 323 325 326 330 329 330 331 334 335 335 336 336 337 339 340 342 343 344 346 346 347 348 347 348 348 349 349 350 351 351 351 352 351 352 354 354 357 356 356 356 356 357 358 358 358 356 356 354 351 349 349 349 349 349 348 347 346 345 346 345 345 346 346 344 343 342 340 341 340 339 339 338 338 337 337 337
312 313 321 322 324 325 324 323 323 321 322 324 326 327 328 329 329 330 332 334 334 336 336 339 338 339 340 341 342 343 344 345 347 349 351 352 352 352 351 352 353 353 352 351 351 353 353 354 354 353 353 354 355 355 354 355 355 354 351 349 347 347 346 346 346 347 346 345 345 343 343 343 343 342 342 341 340 340 340 340 339 338 338 341 338 336 337
316 319 321 321 322 322 322 323 324 324 325 325 325 326 325 325 325 327 329 332 336 333 335 337 337 335 337 339 343 341 341 343 344 346 348 350 352 354 354 353 353 353 353 352 352 351 351 352 352 352 351 351 352 354 353 354 355 351 348 347 348 347 346 345 345 346 344 344 344 342 342 338 330 325 330 344 342 341 332 331 339 340 339 338 339 341 341
308 312 316 318 312 312 317 321 323 322 323 324 323 323 323 323 323 325 325 326 328 328 330 331 333 333 334 336 338 338 339 341 343 345 345 346 347 350 353 354 354 355 355 354 352 352 351 352 351 351 350 351 352 352 354 355 354 351 350 348 347 345 345 343 343 343 342 341 343 342 341 338 332 321 304 298 308 340 335 313 303 302 318 341 335 337 339
306 315 322 322 322 320 321 322 323 324 324 323 321 320 320 320 322 322 322 322 323 324 326 328 328 329 330 332 333 333 335 339 342 343 344 344 344 345 347 349 351 353 354 354 354 353 352 352 351 350 350 351 352 353 354 356 354 352 352 347 345 344 343 341 339 341 341 341 343 343 341 339 338 332 327 318 296 295 303 304 299 294 295 297 300 308 338
318 320 321 323 321 317 320 322 323 323 326 323 320 319 319 319 322 321 322 322 322 322 323 324 326 326 327 328 328 328 330 332 336 339 342 343 344 345 348 350 350 351 351 352 352 351 352 351 350 351 350 351 353 353 354 353 354 353 351 346 343 341 342 340 341 343 341 342 343 341 339 339 338 336 334 331 323 298 294 297 297 294 294 294 295 297 305
317 319 323 322 320 320 321 321 321 321 321 323 319 318 319 320 320 322 322 321 322 321 320 320 322 324 325 325 326 326 327 327 330 333 336 338 339 341 341 342 346 348 348 349 351 352 352 352 351 351 350 351 352 352 352 351 352 351 349 346 341 340 342 341 339 342 342 342 342 340 338 338 337 337 335 333 333 327 312 295 294 295 294 294 294 296 298
321 322 321 322 321 319 321 320 318 319 319 320 319 318 318 320 322 321 320 320 319 320 319 319 319 320 322 323 323 324 326 326 327 329 329 331 335 337 339 343 345 347 348 348 348 349 350 351 351 350 350 350 351 352 350 350 349 349 348 346 344 342 341 340 340 340 339 341 340 339 338 339 338 337 337 336 335 333 328 324 319 307 298 295 295 296 294
319 323 322 318 317 318 319 317 315 318 318 318 316 314 316 315 318 317 318 317 317 318 318 318 318 319 320 321 323 323 323 325 327 326 326 326 327 332 337 341 344 346 348 349 349 349 349 349 348 348 347 347 349 348 348 348 348 348 347 345 343 343 343 342 340 339 336 338 336 337 337 338 336 335 336 336 335 333 332 330 329 327 324 317 301 295 307
314 315 318 314 313 314 316 318 319 320 319 318 315 315 316 317 315 315 315 315 315 316 317 317 315 317 319 320 321 320 321 323 323 324 324 324 325 327 331 336 340 343 344 345 347 348 347 347 345 345 345 346 348 349 347 348 349 348 346 344 342 341 340 340 339 338 336 337 337 336 336 337 337 334 334 332 332 333 331 332 332 330 327 322 313 301 295
312 312 313 313 314 315 317 318 319 319 318 318 318 319 321 318 317 315 314 315 317 316 315 317 320 321 319 319 320 320 321 322 322 323 324 327 328 326 328 331 336 337 340 342 345 347 346 345 343 342 342 344 345 347 347 348 347 345 344 340 339 338 338 339 339 338 337 338 339 338 334 334 334 335 334 333 332 333 333 333 333 331 326 321 318 314 310
311 311 311 311 312 314 314 313 313 315 314 314 314 315 315 315 317 317 317 316 318 317 317 319 318 318 319 318 318 318 319 320 321 322 323 325 328 329 326 331 332 335 339 340 342 342 342 342 342 341 341 343 344 346 345 347 344 345 343 340 339 337 338 339 339 339 339 337 334 331 334 334 336 335 336 336 335 333 332 333 331 329 328 326 322 324 322
311 312 311 310 309 310 311 313 314 313 314 314 314 314 315 315 314 314 316 319 318 319 320 320 321 321 320 320 321 321 323 322 322 323 325 326 329 329 327 328 327 327 329 332 337 339 341 341 341 341 344 343 344 344 342 343 343 343 342 340 341 329 327 331 333 339 338 338 334 334 332 335 336 335 333 333 333 332 332 331 329 330 329 328 327 327 324
309 311 311 310 309 310 312 313 313 311 312 313 313 312 313 314 313 313 314 315 316 318 320 320 321 321 322 324 324 324 325 324 324 325 326 328 329 330 329 328 328 327 330 330 335 337 339 340 340 341 345 344 344 345 342 342 343 340 338 338 337 335 331 329 334 335 338 338 336 334 334 336 336 335 334 333 332 332 332 331 330 330 329 328 327 328 325
310 309 309 311 312 312 312 312 312 313 313 312 313 314 315 315 315 315 314 316 316 318 318 319 319 320 322 322 324 323 323 324 326 326 325 326 327 328 329 329 328 330 330 333 331 334 337 339 339 343 345 343 342 343 342 342 342 339 338 336 337 335 334 330 331 337 339 337 335 337 336 336 336 336 334 334 333 332 333 331 329 329 329 329 328 328 323
311 311 311 311 312 310 310 311 312 312 314 315 316 316 314 315 315 316 316 317 316 316 317 318 319 319 320 320 321 322 322 322 320 321 322 324 325 326 328 328 329 329 331 330 333 334 337 338 341 342 342 343 344 341 340 339 341 339 338 338 337 337 335 334 334 338 337 334 335 335 338 337 337 334 333 332 332 331 330 329 327 328 328 328 328 329 315
314 313 314 313 314 314 312 312 311 312 312 311 312 314 316 316 317 316 318 317 317 317 318 319 319 320 319 320 320 319 319 320 321 321 322 323 325 326 327 328 328 329 331 332 330 332 336 338 339 339 340 339 339 339 339 340 339 340 340 340 336 337 337 337 336 336 334 334 335 337 336 335 334 334 332 331 330 328 328 329 328 327 327 327 327 324 318
314 313 313 314 314 315 315 315 314 313 313 312 313 314 314 315 316 316 315 316 317 318 318 319 319 319 319 319 318 318 319 320 321 321 322 323 325 326 327 327 326 327 327 329 331 331 329 337 339 339 341 337 336 336 336 337 338 338 340 339 336 335 335 335 335 334 333 334 334 335 331 331 331 330 330 329 329 330 329 328 328 327 327 327 326 325 322
315 314 314 314 315 316 315 316 316 315 315 315 315 315 315 315 315 317 316 317 317 318 318 319 319 318 318 319 319 321 322 322 322 322 322 323 324 325 325 325 325 325 325 326 329 329 334 336 335 336 337 336 334 335 341 339 339 338 338 336 336 335 333 332 333 332 331 332 329 330 329 330 328 328 326 327 327 328 327 327 326 326 326 325 325 324 323
316 317 317 316 316 315 316 316 317 317 315 315 315 316 318 318 318 317 317 318 318 319 320 320 319 320 321 322 321 320 321 323 323 323 324 324 324 324 323 324 324 325 326 328 332 334 335 335 335 335 335 334 334 336 338 336 335 336 335 335 334 332 332 330 330 329 329 331 330 330 328 327 326 326 326 327 328 327 326 326 326 326 326 325 324 324 323
316 317 317 317 317 317 317 317 317 317 315 314 315 316 317 318 318 318 318 318 319 320 320 320 320 320 320 320 320 321 321 322 323 323 324 325 326 325 324 325 327 329 329 331 333 333 334 335 337 334 334 334 335 335 334 334 332 336 335 335 333 332 330 331 329 329 329 331 327 325 327 327 327 326 325 326 327 326 324 324 324 326 324 324 325 326 325
316 316 316 316 316 317 316 316 316 316 316 317 317 316 318 318 318 318 319 320 321 322 321 321 320 319 320 321 321 321 322 323 324 324 324 325 325 325 325 327 330 331 332 330 333 332 332 331 333 335 335 336 336 334 335 334 334 334 335 333 332 330 329 328 328 328 328 328 328 326 327 327 326 325 327 325 324 322 322 321 321 321 322 321 322 323 322
315 316 316 316 316 316 316 316 316 318 317 318 318 320 319 319 319 319 318 320 322 323 322 321 320 320 321 322 322 322 323 324 324 325 326 326 324 323 322 323 328 330 330 331 334 332 331 330 333 331 333 333 333 332 333 332 331 331 331 330 329 329 329 328 327 328 327 327 325 324 325 325 323 323 323 323 321 322 320 320 319 318 318 318 318 319 319
314 315 316 316 316 316 317 317 317 317 318 318 319 319 320 320 320 319 320 321 321 322 323 323 322 322 322 322 322 322 323 324 324 324 325 324 323 323 322 323 329 329 331 330 331 331 332 330 331 331 333 332 331 329 329 330 331 330 328 327 328 328 327 325 326 326 327 326 324 325 325 324 322 321 320 320 319 318 318 318 317 318 318 317 317 318 317
315 314 315 315 315 316 315 316 316 316 317 317 318 319 320 320 320 321 320 321 320 321 321 321 322 321 322 321 321 321 321 323 323 323 324 325 327 326 325 327 329 330 328 329 331 332 331 332 332 331 330 330 330 330 329 328 328 327 326 327 326 326 326 326 326 325 326 324 324 324 323 322 320 319 318 317 317 317 317 316 317 316 316 318 316 316 317
314 314 314 314 314 315 315 316 316 316 315 316 318 319 319 319 319 318 318 319 319 320 320 320 320 321 321 321 320 321 321 320 321 322 321 321 323 327 329 328 328 328 328 328 328 328 330 330 330 329 329 329 329 329 329 329 327 326 325 325 324 326 325 325 325 326 324 322 321 321 321 320 318 318 319 316 316 316 317 316 315 315 315 316 316 316 316
314 314 314 313 314 315 314 314 315 314 315 315 316 316 317 316 317 317 317 317 317 317 318 318 318 318 318 320 320 321 322 322 321 321 320 318 320 323 328 329 328 326 326 328 327 328 328 329 330 330 329 329 329 329 330 330 326 326 325 325 325 323 323 322 323 323 322 323 321 320 319 318 318 318 318 316 316 314 314 314 314 314 314 314 314 314 314
314 315 315 314 314 314 315 316 316 316 314 314 313 314 315 316 316 317 317 316 316 316 317 317 317 317 317 317 319 319 321 321 321 322 323 323 321 324 327 327 327 326 325 328 326 327 326 326 325 325 325 327 328 328 325 326 325 326 326 325 325 324 323 322 323 322 321 320 319 318 318 317 317 316 316 316 314 313 313 314 313 314 314 314 315 314 314
314 314 315 314 315 315 315 315 314 314 313 312 311 311 313 316 315 315 315 317 316 317 316 316 316 317 317 318 318 316 313 316 319 319 321 323 324 325 327 327 326 327 325 326 325 328 326 325 324 323 325 325 325 326 323 324 323 322 322 322 322 322 321 321 320 321 319 318 317 317 318 316 316 316 315 315 314 314 313 313 313 313 313 315 313 313 313
313 313 313 314 315 315 315 314 313 311 311 312 312 312 312 314 314 315 314 315 315 315 314 314 315 315 317 315 317 317 316 315 313 316 318 319 321 324 324 322 323 324 325 326 323 326 327 327 324 323 322 323 323 322 322 320 319 319 319 319 321 320 320 320 318 317 317 316 316 318 316 315 315 315 315 314 314 313 314 314 313 313 313 313 313 313 313
314 314 314 315 314 314 314 312 312 312 311 313 314 313 314 315 314 314 314 314 314 314 312 312 313 315 315 316 315 316 317 318 317 314 317 320 320 319 320 323 326 325 324 323 324 325 325 322 323 323 322 324 323 323 320 319 318 318 317 317 317 317 319 317 317 316 316 315 315 315 315 314 315 315 314 314 313 313 313 313 313 314 314 313 313 313 313
314 314 313 312 312 312 312 312 311 311 314 314 313 313 315 314 311 310 312 312 312 312 312 312 313 314 314 314 314 315 317 317 318 318 317 318 319 320 318 318 321 319 320 320 321 324 326 323 323 323 323 323 322 321 321 319 318 317 317 318 316 317 318 316 312 311 315 317 314 314 314 314 314 314 315 314 314 314 314 314 315 312 309 311 313 313 312
315 313 312 313 313 314 314 315 313 315 315 313 314 314 314 312 312 312 313 312 312 311 311 311 312 312 312 313 315 315 316 316 316 317 315 316 318 317 319 318 318 318 320 317 318 320 323 324 324 323 323 323 321 320 319 320 319 318 318 317 317 316 316 316 314 316 316 315 315 315 315 314 314 315 314 314 313 314 314 314 313 313 314 313 313 313 312
315 314 315 316 315 314 315 314 315 315 316 314 313 313 313 313 313 312 312 314 312 312 312 311 311 313 314 314 315 315 315 315 315 315 316 315 314 314 316 317 317 317 318 319 320 319 319 320 319 321 322 322 322 321 323 323 319 320 319 318 319 316 316 318 315 315 315 315 314 314 314 314 314 314 314 314 314 313 313 314 314 313 313 313 313 313 312
Wind_Speed
23 25 22 17 18 20 18 17 19 21 23 24 25 24 24 21 18 18 16 18 21 20 25 23 19 17 17 17 19 18 16 15 13 10 12 15 15 15 15 14 13 14 15 15 16 17 17 17 18 18 16 16 14 14 15 14 15 16 14 14 15 15 14 14 14 14 14 13 12 12 13 14 14 14 14 14 13 14 15 16 15 18 17 17 17 16 15
20 22 25 23 21 19 19 21 22 22 22 24 26 24 23 27 21 18 17 17 21 20 21 24 23 19 17 16 15 15 17 18 13 15 16 14 11 11 13 14 15 15 15 15 17 17 17 18 18 18 16 16 16 16 15 15 13 13 13 14 14 14 14 13 13 14 14 13 13 13 13 14 13 15 13 13 13 15 15 15 14 14 14 15 16 15 15
17 19 20 24 25 23 23 23 23 24 22 23 25 25 26 24 24 26 26 23 20 16 15 20 22 23 22 15 17 19 17 16 18 18 16 13 14 12 11 12 14 14 15 16 17 18 19 19 19 17 16 15 15 16 15 16 15 15 14 14 14 14 14 13 13 13 13 13 13 13 12 12 13 14 15 13 13 15 16 14 12 11 12 13 13 13 14
16 18 20 22 23 25 26 25 24 24 24 24 22 21 21 22 20 20 23 23 18 15 16 13 16 21 23 25 20 14 14 16 16 15 13 14 13 13 11 10 13 15 16 17 19 20 21 21 20 17 15 16 16 16 15 15 16 15 14 15 15 14 14 13 13 14 12 13 13 12 12 12 11 11 11 14 13 11 12 13 11 10 11 11 12 12 12
16 17 20 21 22 19 20 24 26 26 25 24 23 23 22 23 23 21 20 19 16 15 15 17 16 19 21 22 24 22 18 13 15 15 15 14 14 13 8 8 12 16 18 19 20 21 20 19 19 19 17 16 16 15 15 14 14 14 14 14 14 14 13 13 13 13 12 12 13 11 11 11 10 9 12 10 8 10 11 11 11 10 10 11 11 11 12
14 17 19 17 17 18 20 18 22 24 25 25 26 23 24 25 22 17 17 17 16 18 19 21 21 22 20 19 18 18 16 16 17 22 19 19 19 17 10 10 15 17 16 15 17 19 18 19 19 16 15 14 14 14 14 14 14 14 14 14 13 14 13 13 13 13 12 12 12 12 10 10 10 11 13 12 9 8 9 11 11 11 12 12 11 11 11
13 14 16 17 19 18 14 13 14 19 24 26 26 26 25 24 23 25 25 23 20 18 18 19 21 19 19 21 22 23 24 21 21 20 22 17 19 16 11 13 16 15 16 16 16 17 17 18 17 16 15 14 15 14 15 15 14 15 14 14 13 13 13 13 13 13 13 12 12 12 12 11 10 11 13 12 11 9 11 10 9 10 12 11 10 11 12
9 11 11 13 17 11 13 11 16 18 17 17 20 24 26 24 23 23 23 21 20 20 20 19 17 18 21 21 21 22 23 22 23 24 20 19 21 20 14 11 12 14 16 17 18 18 16 17 17 16 16 15 16 15 15 15 14 14 14 14 13 13 13 13 13 13 13 13 12 12 12 11 10 12 12 11 11 9 7 7 7 8 9 8 9 9 10
13 13 14 16 10 13 13 13 7 3 8 6 6 9 12 16 16 21 20 20 20 20 20 20 18 14 14 15 16 21 23 23 25 24 23 24 22 17 11 16 16 14 15 15 16 16 16 17 17 16 16 15 15 15 15 14 14 14 14 14 13 13 13 13 13 12 12 12 12 12 12 12 11 11 10 10 8 6 6 6 8 9 7 8 8 9 8
12 12 13 11 11 15 11 5 5 2 4 5 6 8 12 16 17 16 18 20 19 21 19 17 15 14 15 16 15 19 21 20 21 20 17 18 18 16 14 12 14 15 14 15 15 17 18 17 17 15 16 15 15 15 15 15 15 14 14 13 13 13 12 13 13 12 12 12 12 12 11 12 12 11 10 9 9 7 7 8 10 10 8 7 8 9 11
10 13 13 12 13 10 4 4 3 4 4 4 6 6 14 9 14 17 17 17 17 21 20 18 16 15 17 17 16 13 14 15 17 18 18 19 16 12 12 15 16 17 16 17 18 18 18 18 17 17 17 17 16 15 15 15 15 14 13 13 12 12 12 13 12 12 12 12 12 12 13 12 10 10 10 7 5 4 7 7 7 7 7 8 8 9 11
14 12 12 13 8 7 10 7 5 1 3 5 2 10 11 7 13 12 14 13 14 14 14 18 18 16 18 18 13 11 15 18 19 19 16 15 15 13 12 13 14 15 15 15 17 18 19 18 18 18 17 16 16 15 15 14 14 13 13 12 12 12 12 12 11 11 10 11 11 11 11 10 9 9 9 7 7 6 6 6 7 8 9 8 10 9 10
15 16 13 10 11 6 7 8 4 5 1 5 9 12 2 10 10 11 11 14 14 12 12 10 16 16 16 14 12 14 14 20 18 11 9 9 11 11 13 13 14 14 14 15 15 16 14 16 17 17 15 15 15 14 14 13 13 12 12 12 12 12 11 10 10 10 9 10 11 10 10 9 9 9 9 8 8 8 8 7 6 6 9 9 9 9 11
17 16 15 13 9 4 10 8 8 2 7 11 9 3 2 8 11 10 12 13 14 13 12 10 10 15 18 20 17 6 3 3 7 6 8 8 9 10 11 14 14 14 14 14 15 15 14 15 16 15 15 14 14 14 13 14 13 12 12 12 11 11 10 10 10 9 9 9 8 8 9 9 9 8 8 8 9 10 7 7 8 8 9 9 9 9 9
12 13 15 12 12 6 8 7 10 5 9 3 5 6 7 7 9 11 10 11 12 13 14 14 12 13 21 15 6 5 6 5 6 7 8 10 11 12 14 14 14 14 15 16 16 16 15 16 14 14 16 16 16 14 15 15 14 13 12 12 12 11 10 10 9 9 9 10 8 7 8 9 11 10 9 9 9 9 9 8 9 9 9 9 9 9 8
14 14 14 6 3 7 7 5 6 5 2 4 6 6 7 6 7 7 9 9 11 12 13 15 13 13 8 1 5 7 7 8 9 9 10 10 11 11 13 14 14 15 15 16 17 16 15 14 14 15 16 16 15 16 17 14 13 13 13 13 12 11 10 9 9 9 9 9 8 7 9 10 10 9 8 9 10 9 9 9 9 9 9 9 9 9 7
12 8 2 6 6 7 5 7 6 5 4 2 3 4 5 5 5 8 8 9 11 12 11 14 12 7 2 4 3 4 6 7 9 11 11 12 12 12 13 15 16 16 16 17 16 17 16 16 14 14 14 16 17 16 13 13 13 13 12 12 11 11 11 10 9 8 8 8 8 8 9 9 10 9 10 10 11 11 10 9 9 9 9 9 8 7 4
9 13 9 5 7 7 8 7 4 6 7 8 6 6 6 7 7 5 6 7 9 10 6 10 7 8 6 9 7 7 8 9 10 10 11 12 13 15 15 16 17 18 19 19 18 18 18 17 15 14 13 15 17 14 13 12 13 13 12 12 11 11 11 10 9 8 9 9 9 9 8 7 9 10 10 11 10 10 9 9 8 9 8 7 8 7 6
2 1 4 6 7 7 9 10 9 8 9 9 9 8 7 7 8 7 4 4 5 4 2 3 1 2 5 7 8 10 10 12 13 13 13 14 15 16 16 17 17 17 17 17 18 19 18 16 15 15 15 13 14 13 13 13 13 12 11 11 11 11 11 9 9 9 9 9 8 8 9 9 9 9 9 8 8 8 8 9 8 8 8 7 7 7 5
4 3 6 9 11 11 13 8 8 10 10 11 11 9 10 10 10 13 9 12 11 8 9 9 9 11 10 8 10 10 11 12 13 14 14 15 16 15 15 16 17 17 17 18 18 18 16 15 14 14 13 13 13 12 12 13 13 13 11 10 12 12 12 9 8 8 9 10 10 9 8 9 9 9 8 8 7 8 8 7 7 7 6 4 3 6 5
2 12 8 9 13 13 12 13 13 10 10 13 16 18 17 15 13 14 15 12 10 11 13 12 12 15 14 11 11 13 12 13 13 14 15 16 17 17 17 16 16 15 16 17 17 17 15 13 14 13 14 13 13 13 12 11 11 11 11 12 12 14 12 10 8 7 7 8 8 8 6 6 7 6 3 1 5 6 9 6 4 4 7 4 1 0 2
4 5 6 11 5 8 8 11 11 11 12 14 18 18 18 17 17 15 15 16 16 15 15 14 14 15 14 14 14 16 16 15 14 14 14 15 17 17 16 15 17 16 16 16 16 15 13 12 13 13 13 13 13 13 13 12 11 11 11 10 11 11 10 10 10 10 8 8 8 9 8 6 7 6 9 11 10 3 5 8 10 11 9 4 1 2 5
1 5 5 7 7 13 10 9 9 11 11 14 19 19 18 18 16 16 17 16 15 16 17 16 17 17 16 17 18 18 17 15 14 14 14 14 14 15 15 16 15 15 14 14 14 14 12 11 12 12 11 11 11 11 10 10 10 11 11 10 10 10 10 9 10 10 9 9 8 7 6 7 6 6 6 8 14 15 11 7 8 10 10 8 3 4 1
7 2 7 5 6 10 9 9 10 12 12 14 17 17 16 15 14 16 16 17 18 15 16 18 18 18 18 19 19 19 18 17 16 16 16 15 14 14 14 14 14 14 13 13 13 12 11 11 11 11 11 11 10 10 10 10 9 9 9 8 9 9 9 10 9 8 8 8 9 9 6 6 7 7 6 6 5 11 12 10 11 11 11 10 9 10 11
2 4 7 9 11 11 10 10 9 10 12 13 14 15 15 15 15 14 15 15 16 18 17 17 18 18 19 18 18 17 16 16 15 14 14 14 15 14 13 13 13 12 10 10 9 9 10 10 11 11 11 10 10 10 10 10 10 9 8 7 8 8 10 11 9 7 8 8 8 8 8 8 8 7 7 6 6 5 7 11 12 12 12 12 11 9 9
3 9 9 10 11 9 8 10 14 12 11 11 11 13 15 14 12 13 15 15 15 16 16 17 18 18 18 18 16 16 15 15 15 14 13 14 13 13 13 12 11 9 9 9 8 8 9 9 9 10 10 10 9 9 9 8 8 8 6 5 7 7 8 9 9 9 9 9 9 7 7 8 8 8 8 8 8 7 7 5 6 9 11 13 11 9 11
16 8 10 14 12 12 12 12 11 11 12 11 11 11 12 11 12 11 12 14 15 15 16 16 16 16 15 16 16 15 15 14 14 13 13 14 14 13 11 10 9 9 9 8 8 8 8 8 8 8 8 9 8 8 7 8 8 7 7 8 8 9 12 9 8 7 7 7 7 8 7 8 8 7 7 7 7 7 7 7 7 7 6 5 10 12 7
15 17 13 12 11 10 11 11 10 11 11 10 11 11 10 9 10 13 14 14 14 14 13 15 15 15 14 14 14 12 13 13 13 12 11 11 11 10 10 10 8 7 7 7 6 5 5 6 7 8 8 8 8 9 9 8 8 8 8 9 9 9 8 8 7 7 7 6 3 6 8 8 7 7 7 6 6 7 7 8 8 9 8 7 6 8 14
13 12 12 12 11 10 10 10 13 14 15 13 10 8 8 10 10 11 11 10 10 10 11 13 12 11 10 10 10 11 10 10 11 11 10 9 9 9 8 10 8 6 5 5 5 5 4 5 7 7 7 7 8 8 8 8 8 9 9 9 8 8 8 7 7 7 5 6 6 6 6 6 6 5 6 6 6 7 7 7 8 7 8 9 8 7 8
11 11 11 11 10 11 13 13 13 14 14 13 13 13 12 11 10 9 8 9 9 9 7 8 9 10 9 9 9 8 9 9 8 8 8 7 7 7 8 9 7 4 4 5 4 2 3 5 6 7 7 7 7 8 8 7 7 8 8 8 8 8 7 8 7 7 7 6 6 8 7 6 6 6 6 6 6 7 7 7 7 7 7 7 7 7 7
9 10 11 11 12 13 13 11 11 11 11 12 12 11 11 10 10 8 7 6 6 5 6 5 4 4 5 7 6 7 7 7 7 7 5 6 5 6 6 7 6 5 4 4 4 1 1 1 3 4 5 5 6 6 7 7 7 8 8 6 5 10 11 7 3 6 6 6 8 7 7 6 6 6 7 6 7 6 7 6 6 6 6 7 7 7 8
11 11 12 10 10 10 9 8 9 10 10 9 9 10 10 9 9 8 7 7 7 5 4 5 6 5 5 3 2 2 5 5 3 3 4 4 4 4 4 3 1 1 3 3 3 3 1 0 0 3 4 4 6 6 7 7 7 7 7 7 7 6 4 3 5 4 6 7 6 6 6 6 6 6 6 7 7 6 6 7 7 7 7 7 7 6 8
7 9 9 9 8 9 9 8 8 8 8 8 8 8 8 8 7 7 7 6 6 6 6 5 5 4 3 2 2 2 1 2 1 2 1 2 2 1 1 2 1 1 1 2 3 3 3 1 1 3 3 3 5 5 6 7 7 7 7 7 7 6 7 5 4 6 6 6 6 6 6 6 6 6 6 6 6 5 6 6 6 6 6 6 6 6 10
9 8 7 7 6 6 8 7 6 5 3 2 2 6 8 8 7 6 6 6 7 7 6 6 5 4 4 5 4 3 3 3 1 1 1 2 3 4 3 2 2 2 2 2 3 3 0 1 1 1 2 3 3 5 6 6 6 5 5 6 6 6 6 6 6 6 6 6 6 6 6 6 6 6 6 6 6 5 5 5 5 5 4 5 4 5 12
6 6 6 6 6 5 6 6 6 6 6 7 7 7 6 5 6 7 6 6 7 7 7 6 7 6 6 6 5 4 4 3 3 3 2 3 4 4 3 3 3 2 0 1 1 1 1 1 1 1 3 2 4 5 5 5 6 5 5 5 7 6 7 7 7 7 7 6 6 7 6 6 6 5 6 5 5 5 5 4 5 5 5 5 6 8 10
5 5 5 4 4 4 5 5 5 5 5 5 5 6 6 6 6 7 7 7 7 7 6 7 7 7 7 7 6 7 7 6 4 3 2 2 2 2 1 2 2 1 1 3 1 1 4 3 5 8 5 4 5 5 4 4 5 5 6 4 5 6 6 7 6 5 5 5 6 4 5 6 7 6 5 5 4 4 5 5 5 5 4 5 6 7 8
5 5 5 4 3 4 5 3 3 4 4 4 5 4 4 4 5 5 6 8 8 8 8 7 7 8 8 7 6 6 4 4 3 3 3 3 1 0 2 1 2 1 2 4 4 3 4 7 5 3 3 3 4 3 7 9 2 5 6 6 5 5 5 6 6 6 6 7 7 7 7 7 6 5 4 4 4 5 4 5 5 4 4 4 4 7 7
6 6 5 4 4 4 4 4 3 4 5 5 5 3 3 4 5 5 7 8 6 5 5 5 5 5 5 4 5 5 4 4 5 4 3 2 3 3 4 4 3 3 5 5 4 3 3 4 3 2 1 1 2 4 5 9 5 3 4 5 5 6 6 6 5 5 5 6 7 6 6 5 5 5 5 4 4 4 3 4 3 3 3 3 4 7 6
8 7 7 6 6 5 4 4 5 5 5 6 5 4 4 4 5 5 6 6 5 3 3 4 5 5 5 5 5 5 5 5 5 4 4 4 4 5 5 4 3 4 4 4 3 3 4 3 2 2 2 3 4 5 7 6 4 3 3 5 5 4 4 5 5 6 6 7 6 6 6 6 6 6 5 5 4 3 3 3 4 5 4 5 6 7 8
8 8 8 7 6 5 5 6 6 6 7 7 6 6 6 5 6 5 5 5 4 4 5 4 5 5 5 5 6 6 6 6 6 4 5 4 3 4 4 5 5 4 4 3 3 4 5 3 3 4 4 4 5 5 6 6 6 4 5 5 6 6 5 5 6 6 6 6 6 6 5 5 4 5 6 5 6 6 6 4 3 5 7 5 4 3 3
8 7 7 7 7 7 7 7 7 7 6 6 6 6 5 5 4 4 6 6 6 5 6 5 5 4 5 5 6 6 6 7 7 6 5 4 4 4 5 6 5 6 6 5 5 4 5 5 4 5 4 3 4 5 5 6 4 5 5 5 5 5 6 5 5 5 5 5 5 5 5 5 5 4 5 4 4 4 6 7 5 4 3 5 4 4 5
9 9 9 8 7 7 7 7 8 8 8 7 7 7 8 8 7 7 6 6 7 6 6 6 6 6 5 5 5 5 6 7 7 6 7 7 6 5 5 5 5 5 6 4 3 2 3 4 4 4 4 4 5 5 3 4 4 4 4 4 5 5 5 5 5 4 4 4 5 5 5 5 5 5 5 5 6 5 3 3 4 4 4 4 4 5 4
8 9 8 8 7 7 8 8 8 8 8 8 7 7 7 7 7 7 7 7 8 8 7 7 7 7 6 6 6 6 6 6 5 5 5 5 7 6 5 4 4 5 5 4 3 2 3 4 3 4 5 3 4 4 3 2 3 3 4 5 5 5 5 5 5 6 6 6 5 5 6 5 5 4 2 3 2 2 2 3 4 4 4 4 5 4 5
8 8 7 7 7 7 7 7 7 7 8 7 7 6 7 6 7 8 8 7 8 8 8 8 8 8 8 8 8 7 6 7 6 5 4 5 5 7 6 5 4 6 8 5 4 5 5 6 5 6 5 4 3 2 3 1 2 3 2 3 4 5 5 5 4 4 4 4 5 5 4 3 3 4 4 5 4 6 8 5 3 3 3 3 4 5 5
7 6 7 7 7 7 7 6 6 7 6 6 7 7 7 7 7 7 7 7 7 7 7 7 8 8 8 8 7 7 6 6 6 6 6 6 5 6 6 4 5 4 5 8 4 5 6 6 7 7 5 6 5 5 3 1 4 4 4 2 2 2 3 4 4 3 4 4 4 3 3 5 5 7 8 5 1 1 0 2 5 4 3 4 3 3 3
6 6 6 6 7 6 6 4 3 3 4 4 6 7 6 5 5 6 5 5 4 5 5 6 7 7 7 7 7 6 5 6 7 7 6 6 6 5 5 6 5 5 6 8 4 4 6 8 7 6 6 5 7 4 0 2 1 1 2 3 3 3 3 2 3 4 5 6 5 5 5 4 5 2 2 4 5 6 2 5 5 3 4 5 6 5 3
5 5 6 5 4 3 3 3 5 5 5 5 5 6 6 6 7 6 5 4 2 1 3 3 5 6 5 5 4 6 7 5 5 5 6 5 5 4 3 4 5 7 7 5 6 5 4 4 4 4 6 6 7 5 2 2 2 2 3 3 2 2 3 4 5 6 6 4 4 3 1 2 3 4 5 2 1 2 3 4 7 6 6 5 5 4 4
5 6 6 5 5 3 0 1 4 5 5 5 5 5 4 4 5 4 4 5 4 4 5 5 5 5 3 5 5 6 7 7 7 6 6 5 4 4 5 5 6 6 6 3 6 7 9 7 5 3 4 6 5 4 5 3 2 2 2 3 5 6 7 8 7 3 3 2 3 1 3 4 3 3 4 6 5 7 7 5 5 4 4 5 5 5 5
5 4 4 4 4 4 3 2 3 4 4 4 5 4 4 5 3 5 6 6 7 7 5 6 6 7 6 5 5 7 7 5 6 5 6 5 6 5 5 3 2 2 4 4 2 3 5 4 2 1 5 6 4 4 4 5 2 2 3 3 4 3 4 3 3 3 3 4 5 5 5 6 5 5 5 4 4 4 3 4 5 5 4 5 5 6 5
5 4 4 5 5 7 8 7 7 6 6 5 4 3 4 4 4 5 4 5 6 6 6 6 7 6 6 7 8 8 6 5 6 6 6 8 7 5 4 4 4 3 3 5 4 1 7 5 4 3 5 5 5 5 4 5 2 3 5 3 4 4 3 3 7 8 3 4 5 6 6 5 7 5 3 4 5 5 5 4 6 1 5 5 7 7 8
4 5 5 6 6 6 6 6 6 6 6 7 6 5 6 4 4 4 3 3 5 4 6 5 5 5 5 6 6 5 6 8 8 9 9 7 7 10 10 6 5 3 3 4 4 1 4 4 5 6 7 7 6 6 5 5 5 4 3 4 4 6 4 4 4 3 4 4 6 6 6 6 6 5 5 5 5 5 5 5 5 6 6 6 7 7 6
2 4 4 2 2 3 3 5 5 4 3 4 5 6 6 6 6 5 6 7 6 5 5 5 5 4 6 6 6 7 7 7 8 7 7 7 8 8 8 7 6 4 3 5 3 3 4 3 4 6 6 6 5 5 4 4 5 6 5 6 7 6 5 3 5 6 6 6 6 6 7 7 7 6 6 6 6 5 6 7 7 5 4 6 7 7 7
Wind_Direction
227 246 258 235 234 241 234 216 223 224 224 233 227 226 232 228 228 238 228 223 231 236 243 250 243 228 211 212 230 227 219 230 218 217 197 181 180 181 184 188 189 187 185 183 180 181 182 184 185 185 185 185 185 184 186 187 187 184 177 177 181 183 182 186 185 186 188 192 197 197 199 200 203 205 207 208 205 201 201 203 202 201 199 192 187 186 186
224 226 239 250 244 232 232 236 230 225 228 227 236 239 231 233 241 243 242 238 236 227 232 238 247 251 230 212 218 229 223 226 241 228 206 192 201 191 189 185 186 188 187 181 182 180 182 186 186 186 185 183 184 182 182 183 186 178 170 172 176 181 183 184 181 182 187 196 196 201 203 202 203 213 212 209 210 210 209 206 205 203 200 195 190 184 181
245 232 230 237 242 249 239 227 233 237 226 228 227 233 238 237 237 240 240 240 241 236 229 230 233 247 254 245 205 219 224 233 230 232 238 219 220 213 188 187 186 186 187 184 184 185 183 186 189 189 185 182 180 181 178 178 179 175 171 169 174 178 181 181 178 181 181 192 197 195 200 203 206 212 218 218 214 219 219 212 207 205 207 196 197 187 182
241 241 243 237 236 235 245 247 239 231 231 235 227 225 225 233 234 236 244 244 238 234 237 228 231 241 246 250 251 217 208 214 229 246 241 236 234 236 231 206 192 184 190 187 188 190 186 184 187 187 183 180 178 179 174 174 176 172 170 168 172 175 177 177 176 183 182 194 195 193 197 204 203 199 211 223 224 205 207 210 208 210 204 198 198 188 179
240 235 239 245 244 246 243 239 238 241 240 232 234 235 227 228 232 232 232 240 244 238 233 236 231 230 235 244 244 247 244 235 233 237 243 245 248 245 195 191 193 195 195 191 192 193 189 182 184 188 182 178 178 174 170 166 171 168 168 167 170 174 174 176 177 185 183 196 196 195 200 198 191 191 213 211 201 203 206 210 214 203 198 191 189 180 175
235 231 238 240 240 232 232 230 237 240 245 249 243 233 229 230 224 235 236 242 236 233 235 233 232 232 234 234 242 246 251 252 244 242 239 239 246 248 214 203 214 203 201 197 193 191 191 185 181 180 181 177 173 169 165 164 168 163 166 165 167 170 171 174 175 182 186 192 191 192 190 185 183 196 211 208 199 210 230 230 220 213 205 188 174 170 172
234 233 231 233 236 236 241 238 240 238 243 248 255 261 250 235 234 238 236 229 234 238 232 232 232 235 239 239 241 241 239 242 245 238 234 225 234 242 225 211 217 205 200 196 188 186 187 183 173 174 177 174 168 166 164 163 164 161 166 165 168 169 172 174 177 180 185 187 181 184 190 188 187 200 207 200 194 210 226 224 209 213 206 185 167 167 167
230 233 224 234 232 251 260 241 233 237 243 246 260 257 256 249 241 240 245 244 233 229 238 240 234 228 229 236 238 238 242 239 237 239 236 226 228 232 222 222 206 195 193 191 186 183 179 176 172 173 174 171 168 165 163 161 161 161 164 166 165 168 171 172 174 178 180 185 184 179 185 186 190 201 208 209 208 203 215 213 203 206 191 169 161 164 172
228 221 232 239 269 256 234 244 254 271 250 253 282 280 291 287 275 251 242 248 248 243 232 231 235 236 240 239 235 236 235 235 241 238 231 233 232 233 203 207 198 186 184 185 181 172 176 176 169 170 169 168 164 159 161 160 159 160 163 165 167 167 168 167 169 172 175 177 180 183 182 184 185 195 200 205 208 199 195 217 204 194 187 169 159 162 155
217 232 230 239 242 244 226 28 81 10 24 316 332 334 280 264 279 293 269 245 248 257 254 243 234 232 241 241 241 232 230 229 234 236 239 237 232 220 211 194 179 172 178 180 170 172 172 173 163 162 165 161 160 160 159 157 158 159 164 165 165 163 163 163 164 166 168 171 173 180 173 180 191 199 198 202 204 181 195 209 216 204 188 175 174 178 175
216 224 236 227 228 233 99 113 336 37 339 338 353 288 266 267 284 282 292 289 275 249 243 243 239 235 235 238 241 230 225 232 234 232 228 234 232 219 199 185 174 174 174 177 169 171 166 166 160 158 161 159 158 158 156 155 157 158 163 161 161 162 159 161 158 158 163 167 172 175 178 185 187 187 191 175 184 178 203 212 217 215 204 202 198 189 185
222 229 228 235 232 217 168 162 174 71 186 96 276 245 240 34 350 347 337 318 315 326 301 259 239 232 237 236 236 239 243 239 231 225 222 220 219 209 184 185 172 167 166 165 166 170 168 162 156 157 159 157 156 154 150 152 154 155 157 156 155 154 149 150 153 157 161 165 169 174 176 181 177 182 179 165 175 175 195 201 204 206 199 204 200 193 189
219 223 235 244 238 243 172 170 161 210 184 217 223 228 336 340 334 336 322 318 314 314 308 297 253 234 244 253 243 250 267 252 225 191 185 199 206 191 179 168 152 157 164 166 168 165 160 155 151 152 151 151 149 146 143 145 146 147 146 144 145 142 143 148 150 154 155 160 165 166 171 165 174 177 179 173 160 168 192 201 200 200 197 205 205 207 214
216 215 232 236 258 207 175 154 216 198 226 230 240 39 283 298 326 334 325 318 320 311 302 301 284 268 248 234 233 210 250 3 74 143 163 167 157 161 156 137 152 156 157 156 159 152 145 146 143 145 146 140 137 133 134 134 133 131 130 131 129 129 133 137 142 147 149 152 158 161 163 160 162 163 158 161 155 174 193 194 194 193 196 208 215 216 219
222 222 226 230 233 124 211 164 199 136 243 294 3 330 325 318 309 309 319 323 307 309 299 289 286 280 264 247 202 206 208 159 147 142 149 152 150 132 126 138 147 150 146 145 140 140 139 138 138 140 136 128 125 127 123 122 124 128 122 121 123 127 134 138 141 145 147 150 156 150 156 165 169 160 156 163 154 176 192 190 189 190 195 202 208 212 216
219 214 223 230 277 130 186 204 240 100 2 353 347 344 319 338 312 315 321 315 317 304 292 285 276 270 289 96 152 149 150 156 150 138 131 128 123 137 144 143 145 139 137 142 145 143 131 130 135 132 123 121 121 118 119 124 122 120 123 125 127 129 132 136 143 146 145 147 151 146 156 164 155 143 158 163 157 180 184 184 183 189 191 201 209 210 209
219 245 207 94 121 130 91 82 97 110 80 60 7 316 338 335 349 330 311 321 319 304 301 301 280 236 200 72 103 159 133 133 136 137 140 141 146 146 142 134 133 140 135 128 124 122 124 117 114 114 113 114 113 112 115 119 119 119 120 125 127 130 132 135 143 144 145 149 152 148 153 154 155 159 171 172 175 185 189 188 192 194 198 201 204 201 184
81 77 90 84 84 108 110 101 59 61 70 62 41 26 3 23 346 344 320 300 298 302 303 265 243 242 183 163 171 193 154 127 114 114 118 121 123 129 129 128 127 118 120 119 114 106 97 97 101 102 108 112 110 111 116 117 121 125 130 131 133 132 132 136 141 145 152 151 156 158 154 163 166 167 170 178 179 180 188 189 193 200 209 207 200 172 158
213 143 103 125 118 108 116 93 74 64 52 56 54 29 18 28 3 6 6 343 326 0 277 253 273 148 132 145 128 123 114 111 108 109 112 119 122 125 119 118 118 114 112 108 103 102 102 103 105 107 106 106 111 119 123 128 129 132 133 135 135 132 128 139 149 158 156 159 159 155 165 169 174 174 173 180 174 180 184 197 199 203 204 194 182 134 159
261 91 102 93 79 59 55 66 69 68 60 50 47 56 54 48 32 37 59 45 35 48 64 61 76 81 61 71 106 108 106 107 108 110 106 101 97 97 99 101 100 101 102 102 102 101 102 104 107 111 114 118 125 131 134 134 134 137 143 141 137 134 138 142 153 158 162 149 157 160 169 175 172 173 171 178 170 182 197 203 203 192 187 155 142 149 168
166 168 175 128 100 83 75 65 58 56 72 76 61 52 45 41 48 49 49 70 78 70 63 66 82 81 75 83 89 93 91 91 91 91 95 95 93 92 87 87 89 93 96 97 99 100 102 107 111 116 121 126 128 128 126 126 136 142 145 144 139 139 143 148 141 143 145 162 169 155 122 80 52 38 25 118 175 135 44 24 354 207 173 147 132 211 122
217 197 162 153 164 129 97 66 53 61 67 72 71 60 51 39 34 34 49 52 50 49 55 61 63 66 73 75 77 74 67 66 65 68 75 79 81 82 83 84 86 88 91 96 99 102 106 111 115 117 120 127 132 133 133 139 142 140 141 139 139 139 146 149 154 156 161 170 163 159 153 136 113 86 56 56 30 50 92 45 35 33 81 94 169 241 153
359 317 91 63 75 94 85 72 51 39 54 64 63 59 54 43 27 31 29 36 43 43 43 43 50 53 52 52 53 56 55 51 51 56 62 69 76 81 83 84 84 86 89 94 97 98 103 108 112 116 120 122 120 122 128 128 136 139 142 139 144 145 153 159 157 160 168 160 159 154 147 147 141 129 130 66 51 51 59 61 58 53 63 90 102 32 213
162 77 30 59 88 96 87 71 45 31 28 54 61 58 51 49 41 29 30 26 26 32 36 38 38 41 45 48 47 48 44 42 43 43 46 55 63 69 72 74 80 85 88 91 97 103 108 110 111 113 111 110 111 118 127 132 138 145 148 154 151 157 176 135 139 170 161 150 151 143 139 141 145 151 139 138 93 52 52 56 56 56 55 47 42 52 50
52 57 119 97 98 88 86 82 60 43 32 37 53 56 52 39 31 42 37 32 27 22 23 32 35 34 37 41 46 45 44 42 37 41 49 51 51 53 59 62 63 66 74 82 90 97 105 112 116 116 115 118 123 129 135 138 146 146 156 163 156 144 116 133 147 154 139 141 146 152 149 157 158 161 167 171 171 143 72 64 68 65 53 47 43 44 69
74 129 105 115 104 99 99 86 70 64 62 48 40 45 52 47 33 34 40 35 32 27 22 24 26 27 30 30 34 36 37 37 33 33 43 44 45 50 54 55 60 70 72 73 79 92 100 103 108 113 119 124 127 135 136 134 135 141 157 155 128 129 141 148 147 153 147 155 155 155 160 165 164 168 177 182 182 159 147 141 106 79 67 56 49 61 54
30 34 117 88 83 72 60 58 66 70 87 82 70 52 31 37 40 42 41 40 33 26 24 25 28 25 27 25 27 28 28 27 30 31 32 36 40 36 39 54 57 66 70 69 68 71 87 102 111 120 123 123 126 124 129 135 136 143 139 125 127 128 135 143 157 170 151 146 172 156 159 167 162 175 173 179 154 159 168 165 160 150 148 97 46 30 69
54 50 52 86 88 80 73 63 63 59 64 93 94 83 72 43 42 45 40 36 33 25 22 21 23 21 22 18 16 20 21 27 28 28 29 26 25 28 23 21 46 55 75 81 87 89 110 119 122 119 120 126 136 141 144 143 142 139 132 132 134 141 144 151 150 142 141 161 164 146 159 170 179 178 174 175 167 170 170 165 154 145 133 111 97 79 77
59 64 67 72 81 83 77 66 64 63 54 52 80 112 106 85 64 52 49 42 35 34 23 21 21 21 15 18 14 12 12 18 17 18 21 18 13 15 14 6 9 57 58 84 106 122 125 129 129 125 130 148 151 143 144 146 148 145 149 151 148 150 157 149 145 143 145 140 156 149 150 160 164 169 166 169 175 168 161 159 148 139 120 129 131 118 102
60 63 65 63 60 60 56 47 44 46 47 44 44 48 51 65 72 69 44 31 27 36 23 25 20 13 6 8 8 3 5 3 8 2 360 10 11 9 7 356 352 37 47 59 61 89 155 155 155 150 152 160 151 146 149 150 156 160 168 165 165 164 160 148 147 140 145 159 137 122 156 167 165 171 166 166 165 160 160 149 151 141 134 144 147 142 145
66 66 68 66 59 51 52 51 47 45 44 45 43 44 44 48 56 63 82 94 68 29 17 5 33 38 16 0 5 351 350 358 350 334 335 356 9 7 355 353 5 20 11 354 339 55 98 172 187 156 144 160 137 171 155 159 160 168 181 163 107 71 82 72 134 160 163 157 142 170 171 179 169 172 163 164 165 170 160 156 168 163 153 152 165 162 146
76 64 57 56 55 52 49 48 50 48 43 39 46 49 41 41 46 47 53 48 58 50 67 40 28 11 32 3 5 326 331 312 264 292 350 3 7 351 328 295 324 290 291 317 333 -0 21 186 238 137 148 161 146 184 167 169 167 187 178 164 140 138 115 143 154 157 156 144 159 173 168 178 165 171 165 171 178 170 165 162 169 169 160 165 173 159 139
75 78 59 50 50 50 50 42 39 44 45 43 41 39 44 44 41 46 40 38 53 55 42 35 16 358 15 13 5 351 265 240 166 55 33 317 283 244 267 288 296 301 306 343 346 319 344 349 76 107 180 204 188 177 182 179 188 201 190 186 171 146 147 186 140 147 146 156 167 165 163 175 157 172 171 172 166 167 167 167 169 172 172 172 166 164 143
45 53 59 59 43 33 30 25 31 41 69 58 80 59 37 28 28 40 35 39 44 37 23 21 20 351 21 5 355 12 18 3 4 337 323 312 324 344 338 336 345 326 346 346 308 318 65 62 45 148 163 181 216 213 195 190 194 220 190 187 164 151 164 157 149 161 153 165 154 152 166 167 168 173 160 166 164 173 175 168 166 163 170 172 181 136 136
60 62 58 59 54 47 29 23 24 25 32 35 46 48 48 34 12 21 29 41 36 33 26 15 18 7 21 17 348 13 4 5 1 330 344 338 342 341 344 340 2 330 36 72 335 264 47 291 284 215 204 217 208 209 191 211 188 184 183 175 168 167 162 159 170 161 164 161 152 165 164 165 161 147 154 163 162 166 171 178 159 169 171 179 125 121 144
77 71 66 55 40 52 62 35 36 41 44 45 32 39 36 16 16 21 16 39 37 27 18 19 25 20 19 1 3 29 6 352 1 338 349 1 353 327 324 25 336 24 186 117 73 198 220 176 75 10 332 228 209 218 200 213 198 184 180 174 167 162 163 167 166 165 152 137 138 154 174 149 134 150 158 165 166 171 171 167 172 176 180 189 153 137 143
80 72 61 60 48 37 67 79 63 50 55 59 38 38 46 44 45 38 29 41 31 19 8 8 23 20 17 10 8 18 13 340 355 17 18 358 359 315 20 90 88 203 205 89 36 2 40 49 32 29 267 220 205 162 60 29 215 172 176 181 176 164 163 166 164 163 147 159 153 137 114 120 147 140 163 182 173 175 175 169 177 192 190 197 167 149 158
70 79 84 73 61 57 52 41 50 95 95 91 92 80 48 61 64 60 58 53 41 18 357 9 34 31 34 30 37 32 23 17 17 28 43 47 15 27 49 32 23 3 48 49 36 36 19 21 50 116 283 334 85 116 64 46 17 174 175 175 167 155 175 158 136 128 135 125 119 131 147 155 152 171 172 180 158 157 161 156 168 193 214 221 223 157 167
81 77 75 72 66 63 64 65 63 66 81 94 90 82 74 67 74 80 79 70 60 22 31 36 39 46 33 34 48 51 44 42 35 28 44 48 58 53 50 42 37 5 31 24 24 51 53 59 104 88 77 88 99 99 81 74 93 144 150 137 131 136 123 95 117 143 139 137 155 153 164 161 167 163 166 162 154 157 179 175 185 193 213 203 222 174 191
76 70 69 72 79 78 74 70 65 56 49 49 54 49 40 41 41 44 61 76 69 37 49 48 42 37 28 24 38 46 46 47 44 32 30 48 62 78 81 67 41 49 56 16 33 57 28 345 89 80 90 96 95 96 93 99 116 126 121 114 115 129 129 145 153 150 153 165 147 163 168 159 190 167 158 170 156 189 195 156 176 215 208 208 214 216 210
71 71 71 62 63 58 60 66 69 68 61 54 51 51 46 56 55 50 45 48 55 51 48 48 49 37 29 21 27 34 35 38 42 45 29 25 35 48 48 49 36 31 35 32 37 42 30 42 78 90 90 93 102 111 122 124 128 125 126 136 145 142 152 158 155 164 155 158 157 182 160 171 164 173 147 161 180 193 174 173 201 233 260 241 219 218 209
71 70 69 69 67 67 62 58 65 70 66 60 52 46 43 43 41 46 45 48 52 55 54 47 43 26 25 27 27 31 35 39 37 37 43 48 44 32 40 49 39 45 33 36 59 52 58 56 70 79 87 101 107 107 126 146 135 140 168 155 151 153 161 164 164 154 158 156 183 168 152 160 166 185 179 197 207 199 201 214 229 225 227 243 239 232 232
71 67 66 66 70 71 70 68 68 64 65 61 55 50 42 41 45 45 45 44 43 41 43 42 41 36 29 26 26 32 38 43 45 46 56 61 56 53 54 62 60 49 20 49 48 83 79 93 90 88 38 41 111 128 200 192 163 157 158 162 164 166 165 164 169 171 172 179 177 161 169 182 190 172 182 242 215 195 241 221 227 226 226 240 245 248 248
67 66 59 58 57 54 57 62 66 68 64 60 58 59 58 51 44 40 41 38 41 40 34 31 27 27 30 30 31 29 18 22 29 38 41 59 59 60 49 49 54 56 34 31 55 53 61 63 70 79 71 80 105 354 306 154 142 135 138 182 177 178 164 161 168 172 174 181 184 190 192 173 187 163 178 219 211 187 195 213 251 258 269 274 275 269 264
66 59 61 61 56 57 58 52 46 56 70 77 61 46 43 49 48 41 36 38 34 40 40 38 31 23 20 30 32 32 20 17 26 25 21 43 54 51 30 31 49 50 37 354 23 53 64 62 55 48 53 27 353 350 18 292 255 223 158 134 131 192 175 169 178 175 171 172 149 165 204 193 203 186 195 203 73 304 75 192 221 224 219 250 264 301 301
71 68 59 57 61 58 53 57 74 80 76 70 73 67 44 33 44 56 40 37 42 45 39 49 45 32 18 21 27 23 38 36 26 29 39 32 35 33 34 24 35 33 347 324 29 37 76 75 60 31 9 339 333 298 253 101 85 72 126 171 167 176 189 167 165 165 158 194 204 194 198 212 236 240 208 200 162 237 278 35 20 8 298 261 245 249 268
76 79 69 62 64 58 65 73 59 47 45 49 50 54 54 46 31 28 33 32 9 128 125 86 72 56 28 12 36 35 12 18 75 39 17 37 41 35 46 54 43 21 11 24 30 35 67 114 88 37 355 352 322 301 235 155 157 173 175 186 170 185 185 162 193 197 204 204 196 205 135 255 235 189 178 338 320 224 242 189 228 238 250 266 280 285 257
48 60 70 74 85 103 194 30 64 59 55 38 33 36 32 28 55 36 28 24 5 43 70 49 51 57 52 3 338 66 56 3 350 43 7 9 41 51 24 19 23 15 352 83 90 78 67 69 57 14 346 319 285 278 265 230 218 265 240 218 210 198 190 187 198 200 204 203 89 121 182 208 220 259 238 201 207 215 233 257 264 271 281 278 270 274 283
54 50 56 70 83 90 77 33 58 57 49 55 59 20 12 345 18 30 9 14 357 351 19 43 49 29 23 41 18 53 38 16 326 8 350 357 2 5 44 67 151 277 325 355 2 89 117 109 129 320 321 289 281 285 294 293 238 238 230 215 241 242 274 252 230 217 193 199 183 221 234 219 206 207 239 267 258 261 285 279 273 280 301 296 280 263 265
16 28 32 32 28 28 30 31 36 28 347 16 23 16 5 339 27 45 16 16 357 352 2 13 5 17 9 4 9 12 23 10 3 360 343 353 355 358 351 9 39 31 342 329 327 97 132 165 179 219 242 242 248 265 269 278 260 187 239 224 257 243 191 307 41 30 318 252 224 208 219 241 255 261 270 238 239 247 273 290 287 103 99 284 281 284 286
8 11 14 13 23 45 39 34 23 25 7 351 335 351 333 341 1 355 23 8 318 8 6 355 2 358 1 18 345 342 5 3 357 13 6 351 353 345 340 335 341 330 330 304 293 264 168 199 231 220 220 236 251 255 258 260 273 269 244 255 219 254 213 164 247 245 233 252 274 266 251 241 245 241 243 254 265 259 255 260 265 267 266 281 283 278 267
36 21 5 18 32 15 51 48 20 9 8 325 341 354 346 342 327 348 13 7 346 5 347 335 330 349 349 1 351 339 347 351 330 349 347 351 357 333 323 315 292 274 256 259 252 270 282 237 212 229 257 267 267 265 258 270 252 254 253 251 254 233 258 265 217 213 222 225 232 252 265 262 263 263 256 250 247 256 264 261 262 263 261 269 273 272 274